Station 44009 (LLNR 168) - DELAWARE BAY 26 NM Southeast of Cape May, NJ Image indicating link to RSS feed of recent meteorological observations for station 44009


Conditions at 44009 as of
(9:10 am EDT)
1310 GMT on 06/24/2024:
     

Click on the graph icon in the table below to see a time series plot of the last five days of that observation.

5-day plot - Wind Direction Wind Direction (WDIR):SSW ( 210 deg true )
5-day plot - Wind Speed Wind Speed (WSPD):6.0 m/s
5-day plot - Wind Gust Wind Gust (GST):7.0 m/s
5-day plot - Wave Height Wave Height (WVHT): 1.3 m
5-day plot - Average Wave Period Average Period (APD): 4.8 sec
5-day plot - Mean Wave Direction Mean Wave Direction (MWD):SSE ( 158 deg true )
5-day plot - Atmospheric Pressure Atmospheric Pressure (PRES):1005.1 mb
5-day plot - Air Temperature Air Temperature (ATMP): 19.2 °C
5-day plot - Water Temperature Water Temperature (WTMP): 18.2 °C
5-day plot - Dew Point Dew Point (DEWP): 19.0 °C
5-day plot - Wind Speed at 10 Meters Wind Speed at 10 meters (WSPD10M): 7 m/s
5-day plot - Wind Speed at 20 Meters Wind Speed at 20 meters (WSPD20M): 7 m/s
5-day plot -  Wind Speed, Wind Gust and Atmospheric Pressure Combined plot of Wind Speed, Gust, and Air Pressure
Supplemental Measurements
Highest 1-minute Wind Speed
Time (EDT)5-day plot - 1-Minute Wind Speed WSPD 5-day plot - 1-Minute Wind Direction WDIR
9:01 am 6 m/s-
Previous observations
TIME
(EDT)
5-day plot - Wind Direction
WDIR
 
5-day plot - Wind Speed
WSPD
m/s
5-day plot - Wind Gust
GST
m/s
5-day plot - Wave Height
WVHT
m
5-day plot - Dominant Wave Period
DPD
sec
5-day plot - Average Wave Period
APD
sec
5-day plot - Mean Wave Direction
MWD
 
5-day plot - Atmospheric Pressure
PRES
mb
5-day plot - Pressure Tendency
PTDY
mb
5-day plot - Air Temperature
ATMP
°C
5-day plot - Water Temperature
WTMP
°C
5-day plot - Dew Point
DEWP
°C
5-day plot - Salinity
SAL
psu
5-day plot - Visibility
VIS
km
5-day plot - Tide (above MLLW)
TIDE
m
2024-06-24 09:00 amSSW 7.0 8.0----1005.2 +0.8 19.2 18.5 19.0---
2024-06-24 08:50 amSSW 6.0 8.0 1.5 85.1SSE1005.1- 19.2 18.4 19.0---
2024-06-24 08:40 amSSW 7.0 8.0----1005.2- 19.1 18.5 18.9---
2024-06-24 08:30 amSSW 6.0 7.0----1005.2- 19.0 18.5 18.8---
2024-06-24 08:20 amSSW 6.0 7.0 1.5 75.1SSE1005.1- 19.0 18.4 18.7---
2024-06-24 08:10 amSSW 7.0 8.0 1.5-5.1SSE1004.9- 19.1 18.3 18.8---
2024-06-24 08:00 amSSW 7.0 8.0----1004.9 +1.1 19.3 18.0 18.9---
2024-06-24 07:50 amSSW 7.0 8.0 1.5 85.0SSE1004.9- 19.5 17.9 19.1---
2024-06-24 07:40 amSSW 7.0 9.0----1004.8- 19.6 18.0 19.2---
2024-06-24 07:30 amSSW 7.0 8.0----1004.8- 19.6 18.1 19.2---
2024-06-24 07:20 amSSW 7.0 9.0 1.5 74.8 S1004.8- 19.6 18.1 19.2---
2024-06-24 07:10 amSSW 7.0 9.0 1.5-4.8 S1004.8- 19.5 18.1 19.0---
2024-06-24 07:00 amSSW 7.0 9.0----1004.8 +0.7 19.5 18.1 18.9---
2024-06-24 06:50 am SW 7.0 9.0 1.6 75.0 S1004.7- 19.6 18.1 19.0---
2024-06-24 06:40 amSSW 7.0 8.0----1004.7- 19.5 18.1 18.9---
2024-06-24 06:30 amSSW 7.0 9.0----1004.7- 19.5 18.1 19.0---
2024-06-24 06:20 amSSW 7.0 9.0 1.7 75.1 S1004.7- 19.5 18.1 19.1---
2024-06-24 06:10 am SW 7.0 9.0 1.7-5.1 S1004.6- 19.5 18.1 19.2---
2024-06-24 06:00 am SW 7.0 9.0----1004.5 +0.0 19.5 18.2 19.2---
2024-06-24 05:50 am SW 7.0 9.0 1.6 64.8 S1004.4- 19.5 18.2 19.2---
2024-06-24 05:40 am SW 7.0 8.0----1004.4- 19.6 18.3 19.3---
2024-06-24 05:30 am SW 7.0 8.0----1004.2- 19.7 18.4 19.4---
2024-06-24 05:20 amSSW 7.0 9.0 1.6 84.8SSE1004.2- 19.8 18.4 19.4---
2024-06-24 05:10 amSSW 8.0 9.0 1.6-4.8SSE1003.9- 20.0 18.5 19.6---
2024-06-24 05:00 amSSW 8.0 10.0----1003.9 -0.9 20.0 18.5 19.6---
2024-06-24 04:50 amSSW 8.0 10.0 1.7 74.8 S1003.9- 20.1 18.5 19.7---
2024-06-24 04:40 amSSW 9.0 10.0----1003.9- 20.2 18.6 19.7---
2024-06-24 04:30 amSSW 9.0 11.0----1004.0- 20.4 18.6 19.9---
2024-06-24 04:20 amSSW 10.0 12.0 1.8 85.1 S1004.0- 20.6 18.6 20.1---
2024-06-24 04:10 amSSW 10.0 12.0 1.8-5.1 S1004.1- 20.6 18.5 20.1---
2024-06-24 04:00 amSSW 10.0 12.0----1004.2 -0.8 20.8 18.5 20.2---
2024-06-24 03:50 amSSW 11.0 13.0 1.8 75.0 S1004.2- 21.0 18.6 20.3---
2024-06-24 03:40 amSSW 11.0 13.0----1004.3- 21.1 18.7 20.5---
2024-06-24 03:30 amSSW 10.0 12.0----1004.4- 20.9 18.7 20.3---
2024-06-24 03:20 amSSW 10.0 13.0 1.7-4.9 S1004.5-- 18.9----
2024-06-24 03:10 amSSW 10.0 13.0 1.7-4.9 S1004.6- 20.9 19.0 20.3---
2024-06-24 03:00 amSSW 10.0 12.0----1004.7 -0.8 21.0 19.1 20.4---
2024-06-24 02:50 amSSW 10.0 12.0 1.9 75.3 S1004.8- 21.1 19.2 20.5---
2024-06-24 02:40 amSSW 10.0 12.0----1004.9- 21.4 19.2 20.7---
2024-06-24 02:30 amSSW 10.0 12.0----1004.9- 21.4 19.2 20.8---
2024-06-24 02:20 amSSW 10.0 13.0 2.0 75.3 S1005.0- 21.4 19.2 20.8---
2024-06-24 02:10 amSSW 10.0 12.0 2.0-5.3 S1004.9- 21.4 19.4 20.8---
2024-06-24 02:00 amSSW 10.0 13.0----1004.9 -0.6 21.6 19.4 20.9---
2024-06-24 01:50 amSSW 10.0 12.0 1.9 75.0 S1005.0- 21.8 19.6 21.1---
2024-06-24 01:40 amSSW 11.0 13.0----1005.1- 22.1 19.7 21.4---
2024-06-24 01:30 amSSW 11.0 13.0----1005.1- 22.2 19.8 21.4---
2024-06-24 01:20 amSSW 11.0 13.0 1.8 75.0 S1005.1- 22.4 19.8 21.6---
2024-06-24 01:10 amSSW 11.0 13.0 1.8-5.0 S1005.1- 22.4 19.8 21.6---
2024-06-24 01:00 amSSW 11.0 14.0----1005.0 -1.0 22.5 19.8 21.7---
2024-06-24 12:50 amSSW 12.0 14.0 1.8 74.9 S1005.3- 22.7 19.8 21.8---
2024-06-24 12:40 amSSW 12.0 15.0----1005.2- 22.8 19.9 21.9---
2024-06-24 12:30 amSSW 12.0 14.0----1005.3- 22.9 19.9 22.0---
2024-06-24 12:20 amSSW 12.0 15.0 1.8 75.0 S1005.4- 23.0 19.8 22.1---
2024-06-24 12:10 amSSW 12.0 15.0 1.8-5.0 S1005.5- 23.0 19.7 22.1---
2024-06-24 12:00 amSSW 11.0 14.0----1005.5 +0.0 22.9 19.7 22.1---
2024-06-23 11:50 pmSSW 11.0 14.0 1.8 65.0SSW1005.5- 22.9 19.8 22.2---
2024-06-23 11:40 pmSSW 11.0 13.0----1005.6- 22.8 19.9 22.1---
2024-06-23 11:30 pmSSW 10.0 13.0----1005.6- 22.7 20.0 22.0---
2024-06-23 11:20 pmSSW 10.0 13.0 1.8 74.8SSW1005.6- 22.8 20.1 22.1---
2024-06-23 11:10 pmSSW 11.0 13.0 1.8-4.8SSW1005.6- 23.1 20.1 22.3---
2024-06-23 11:00 pmSSW 12.0 14.0----1005.6 +0.0 23.4 20.2 22.6---
2024-06-23 10:50 pmSSW 11.0 14.0 1.7-4.7 S1005.6-- 20.4----
2024-06-23 10:40 pmSSW 10.0 12.0 1.7-4.7 S1005.6- 23.0 20.5 22.1---
2024-06-23 10:30 pmSSW 9.0 11.0----1005.8- 22.7 20.6 21.8---
2024-06-23 10:20 pmSSW 10.0 11.0 1.5 64.4 S1005.8- 22.7 20.7 21.8---
2024-06-23 10:10 pmSSW 10.0 12.0 1.5-4.4 S1006.0- 22.9 20.8 22.1---
2024-06-23 10:00 pmSSW 10.0 12.0----1005.9 +0.0 22.8 20.9 22.1---
2024-06-23 09:50 pmSSW 10.0 12.0 1.5 64.5 S1005.9- 22.8 20.9 22.1---
2024-06-23 09:40 pmSSW 10.0 13.0 1.5-4.5 S1005.8- 22.7 20.8 22.1---
2024-06-23 09:30 pmSSW 10.0 13.0----1005.6- 22.8 20.8 22.2---
2024-06-23 09:20 pmSSW 11.0 13.0 1.7 64.5 S1005.4- 23.0 20.8 22.3---
2024-06-23 09:10 pmSSW 11.0 13.0 1.7-4.5 S1005.4- 23.4 20.9 22.7---
2024-06-23 09:00 pmSSW 11.0 13.0----1005.4 -0.5 23.6 20.8 22.8---
2024-06-23 08:50 pmSSW 11.0 13.0 1.6 64.5 S1005.5- 23.9 20.9 23.1---
2024-06-23 08:40 pm S 11.0 13.0----1005.3- 23.9 21.0 23.1---
2024-06-23 08:30 pm S 11.0 13.0----1005.4- 24.0 21.0 23.2---
2024-06-23 08:20 pmSSW 11.0 14.0 1.6 64.4 S1005.6- 24.0 21.0 23.2---
2024-06-23 08:10 pmSSW 12.0 14.0 1.6-4.4 S1005.7- 24.1 21.0 23.3---
2024-06-23 08:00 pmSSW 11.0 14.0----1005.8 -0.8 24.2 21.0 23.4---
2024-06-23 07:50 pmSSW 11.0 14.0 1.6 64.5 S1005.8- 24.3 20.8 23.4---
2024-06-23 07:40 pmSSW 12.0 14.0----1005.8- 24.3 20.6 23.4---
2024-06-23 07:10 pm S 12.0 14.0 1.6-4.4SSW1005.9- 24.5 20.6 23.5---
2024-06-23 07:00 pm S 12.0 14.0----1005.8 -1.4 24.6 20.6 23.4---
2024-06-23 06:50 pm S 11.0 13.0 1.6 64.5 S1005.7- 24.6 20.4 23.3---
2024-06-23 06:40 pm S 11.0 13.0----1005.8- 24.7 20.2 23.3---
2024-06-23 06:30 pm S 11.0 14.0----1005.7- 24.8 20.2 23.3---
2024-06-23 06:20 pm S 11.0 14.0 1.5 64.3SSW1005.6- 24.9 20.3 23.3---
2024-06-23 06:10 pm S 11.0 13.0 1.5-4.3SSW1005.6- 24.9 20.3 23.2---
2024-06-23 06:00 pm S 11.0 13.0----1005.7 -2.2 24.9 20.4 23.2---
2024-06-23 05:50 pm S 11.0 14.0 1.6 64.4 S1005.9- 24.9 20.6 23.2---
2024-06-23 05:40 pm S 11.0 15.0----1006.0- 24.8 20.7 23.2---
2024-06-23 05:30 pm S 11.0 14.0----1006.2- 24.8 20.7 23.3---
2024-06-23 05:20 pm S 12.0 14.0 1.5 64.3SSW1006.3- 24.8 20.8 23.3---
2024-06-23 05:10 pm S 11.0 14.0 1.5-4.3SSW1006.5- 24.7 20.9 23.3---
2024-06-23 05:00 pm S 11.0 14.0----1006.6 -2.0 24.6 20.9 23.3---
2024-06-23 04:50 pmSSW 11.0 14.0 1.5 54.3 S1006.8- 24.6 20.9 23.3---
2024-06-23 04:40 pm S 11.0 13.0----1006.8- 24.6 20.9 23.3---
2024-06-23 04:30 pm S 11.0 13.0----1007.0- 24.7 21.2 23.4---
2024-06-23 04:20 pmSSW 11.0 14.0 1.5 64.4 S1007.1- 24.7 21.5 23.4---
2024-06-23 04:10 pm S 11.0 14.0 1.5-4.4 S1007.1- 24.7 21.7 23.4---
2024-06-23 04:00 pm S 11.0 13.0----1007.1 -1.9 24.7 21.8 23.4---
2024-06-23 03:50 pm S 11.0 13.0 1.4 54.3SSW1007.3- 24.8- 23.5---
2024-06-23 03:40 pm S 11.0 13.0----1007.4- 24.7 22.0 23.4---
2024-06-23 03:30 pm S 11.0 13.0----1007.6- 24.8 22.1 23.5---
2024-06-23 03:20 pm S 11.0 14.0 1.4 54.3SSW1007.6- 24.9 22.2 23.5---
2024-06-23 03:10 pm S 11.0 13.0 1.4-4.3SSW1007.7- 24.9 22.2 23.5---
2024-06-23 03:00 pm S 11.0 13.0----1007.9 -1.8 24.8 22.2 23.4---
2024-06-23 02:50 pmSSW 10.0 13.0 1.5 54.3SSW1008.1- 24.8 22.3 23.5---
2024-06-23 02:40 pmSSW 11.0 13.0----1008.2- 24.8 22.3 23.5---
2024-06-23 02:30 pmSSW 11.0 13.0----1008.3- 24.8 22.3 23.5---
2024-06-23 02:20 pmSSW 10.0 13.0 1.4 64.2SSW1008.4- 24.8 22.3 23.5---
2024-06-23 02:10 pmSSW 11.0 13.0 1.4-4.2SSW1008.5- 24.8 22.3 23.4---
2024-06-23 02:00 pmSSW 11.0 13.0----1008.6 -1.8 24.8 22.2 23.5---
2024-06-23 01:50 pmSSW 11.0 13.0 1.4 64.3SSW1008.7- 24.7 22.2 23.4---
2024-06-23 01:40 pmSSW 11.0 13.0----1008.9- 24.7 22.1 23.4---
2024-06-23 01:30 pmSSW 11.0 13.0----1008.9- 24.6- 23.3---
2024-06-23 01:20 pmSSW 11.0 13.0 1.4 54.3SSW1009.0- 24.5 22.1 23.3---
2024-06-23 01:10 pmSSW 10.0 12.0 1.4-4.3SSW1009.1- 24.4 22.0 23.2---
2024-06-23 01:00 pmSSW 10.0 12.0----1009.2 -1.6 24.3 22.0 23.2---
2024-06-23 12:50 pmSSW 10.0 13.0 1.4 54.2SSW1009.1- 24.2 21.9 23.2---
2024-06-23 12:40 pmSSW 11.0 13.0 1.4-4.2SSW1009.3- 24.2 21.9 23.2---
2024-06-23 12:30 pmSSW 10.0 13.0----1009.3- 24.1 21.8 23.2---
2024-06-23 12:20 pmSSW 10.0 12.0 1.3 54.1SSW1009.6- 24.1 21.6 23.2---
2024-06-23 12:10 pmSSW 10.0 12.0 1.3-4.1SSW1009.7- 24.0 21.6 23.2---
2024-06-23 12:00 pmSSW 10.0 12.0----1009.8 -1.4 24.0 21.5 23.2---
2024-06-23 11:50 amSSW 10.0 11.0 1.3 54.1SSW1010.0- 24.0 21.4 23.2---
2024-06-23 11:40 amSSW 10.0 12.0----1010.1- 23.9 21.4 23.1---
2024-06-23 11:30 amSSW 9.0 12.0----1010.1- 23.9 21.4 23.1---
2024-06-23 11:20 amSSW 9.0 11.0 1.3 64.1SSW1010.3- 23.9 21.3 23.1---
2024-06-23 11:10 amSSW 9.0 11.0 1.3-4.1SSW1010.2- 23.8 21.6 23.0---
2024-06-23 11:00 amSSW 9.0 10.0----1010.3 -1.4 23.8 21.6 23.0---
2024-06-23 10:50 amSSW 9.0 10.0 1.2 54.0SSW1010.4- 23.8 21.6 23.0---
2024-06-23 10:40 amSSW 9.0 11.0----1010.3- 23.8 21.6 23.1---
2024-06-23 10:30 amSSW 9.0 10.0----1010.4- 23.7 21.5 23.0---
2024-06-23 10:20 amSSW 8.0 10.0 1.2 54.0SSW1010.5- 23.7 21.4 23.0---
2024-06-23 10:10 amSSW 8.0 10.0 1.2-4.0SSW1010.6- 23.7 21.3 23.0---
2024-06-23 10:00 amSSW 8.0 10.0----1010.6 -1.2 23.6 21.3 22.9---
2024-06-23 09:50 amSSW 8.0 9.0 1.2 64.2SSW1010.7- 23.5 21.3 22.8---
2024-06-23 09:40 amSSW 8.0 9.0----1010.6- 23.5 21.4 22.9---
2024-06-23 09:30 amSSW 8.0 9.0----1010.7- 23.5 21.4 22.8---
2024-06-23 09:20 amSSW 8.0 10.0 1.2 64.1 S1010.7- 23.5 21.5 22.8---
2024-06-23 09:10 amSSW 8.0 9.0----1010.9- 23.4 21.5 22.8---
2024-06-23 09:00 amSSW 8.0 9.0----1011.0 -0.8 23.4 21.5 22.8---
2024-06-23 08:50 amSSW 7.0 8.0 1.1 54.1 S1011.3- 23.3 21.6 22.7---

Detailed Wave Summary
for 44009 as of (9:10 am EDT)
1310 GMT on 06/24/2024:

These wave data are displayed in rounded times.

     

Click on the graph icon in the table below to see a time series plot of the last five days of that observation.

5-day plot - Significant Wave Height Significant Wave Height (WVHT): 1.3 m
5-day plot - Swell Height Swell Height (SwH): 0.9 m
5-day plot - Swell Period Swell Period (SwP): 7.7 sec
5-day plot - Swell Direction Swell Direction (SwD):SSE
5-day plot - Wind Wave Height Wind Wave Height (WWH): 1.0 m
5-day plot - Wind Wave Period Wind Wave Period (WWP): 4.8 sec
5-day plot - Wind Wave Direction Wind Wave Direction (WWD): S
5-day plot - Wave Steepness Wave Steepness (STEEPNESS): AVERAGE
5-day plot - Average Wave Period Average Wave Period (APD): 4.8 sec
Previous observations
TIME
(EDT)
5-day plot - Wave Height
WVHT
m
5-day plot - Swell Height
SwH
m
5-day plot - Swell Period
SwP
sec
5-day plot - Swell Direction
SwD
 
5-day plot - Wind Wave Height
WWH
m
5-day plot - Wind Wave Period
WWP
sec
5-day plot - Wind Wave Direction
WWD
 
5-day plot - Wave Steepness
STEEPNESS
 
5-day plot - Average Wave Period
APD
sec
2024-06-24 08:40 am 1.5 1.0 7.7SSE 1.1 5.6 S AVERAGE 5.1
2024-06-24 08:10 am 1.5 1.0 7.1SSE 1.1 4.3 S STEEP 5.1
2024-06-24 07:40 am 1.5 0.9 7.7SSE 1.2 6.2 S AVERAGE 5.0
2024-06-24 07:10 am 1.5 1.0 6.7 S 1.1 5.3 S STEEP 4.8
2024-06-24 06:40 am 1.6 0.9 7.1 S 1.3 6.2 S STEEP 5.0
2024-06-24 06:10 am 1.7 0.0-- 1.7 6.7 S STEEP 5.1
2024-06-24 05:40 am 1.6 0.0-- 1.6 6.2 S STEEP 4.8
2024-06-24 05:10 am 1.6 0.7 7.7SSE 1.5 5.3 S AVERAGE 4.8
2024-06-24 04:40 am 1.7 1.1 6.7 S 1.3 5.6 S STEEP 4.8
2024-06-24 04:10 am 1.8 1.1 7.7 S 1.5 6.2 S STEEP 5.1
2024-06-24 03:40 am 1.8 1.1 7.1 S 1.5 5.3 S STEEP 5.0
2024-06-24 03:10 am 1.7 0.9 7.7SSE 1.5 6.7 S STEEP 4.9
2024-06-24 02:40 am 1.9 1.2 7.1 S 1.4 5.3 S STEEP 5.3
2024-06-24 02:10 am 2.0 1.3 7.1 S 1.5 5.0 S STEEP 5.3
2024-06-24 01:40 am 1.9 0.0-- 1.9 7.1 S STEEP 5.0
2024-06-24 01:10 am 1.8 0.7 12.1 NW 1.7 7.1 S STEEP 5.0
2024-06-24 12:40 am 1.8 0.8 10.8 S 1.7 6.7 S STEEP 4.9
2024-06-24 12:10 am 1.8 0.7 12.9 NW 1.7 6.7 S STEEP 5.0
2024-06-23 11:40 pm 1.8 0.2 12.1NNW 1.8 6.2 SSWVERY_STEEP 5.0
2024-06-23 11:10 pm 1.8 0.0-- 1.8 6.7 SSW STEEP 4.8
2024-06-23 10:40 pm 1.7 0.3 13.8SSE 1.6 6.7 S STEEP 4.7
2024-06-23 10:10 pm 1.5 0.4 10.0 SW 1.5 5.9 SVERY_STEEP 4.4
2024-06-23 09:40 pm 1.5 0.3 10.0 E 1.5 5.9 SVERY_STEEP 4.5
2024-06-23 09:10 pm 1.7 0.2 12.9 SW 1.7 6.2 SVERY_STEEP 4.5
2024-06-23 08:40 pm 1.6 0.0-- 1.6 6.2 S STEEP 4.5
2024-06-23 08:10 pm 1.6 0.2 10.0NNW 1.6 5.9 SVERY_STEEP 4.4
2024-06-23 07:40 pm 1.6 0.0-- 1.6 5.9 SVERY_STEEP 4.5
2024-06-23 07:10 pm 1.6 0.0-- 1.6 5.6 SSWVERY_STEEP 4.4
2024-06-23 06:40 pm 1.6 0.2 8.3 SW 1.6 5.9 SVERY_STEEP 4.5
2024-06-23 06:10 pm 1.5 0.3 10.0 W 1.5 5.9 SSWVERY_STEEP 4.3
2024-06-23 05:40 pm 1.6 0.0-- 1.6 5.6 SVERY_STEEP 4.4
2024-06-23 05:10 pm 1.5 0.2 8.3 E 1.5 5.6 SSWVERY_STEEP 4.3
2024-06-23 04:40 pm 1.5 0.2 10.8WNW 1.5 5.3 SVERY_STEEP 4.3
2024-06-23 04:10 pm 1.5 0.2 9.1WNW 1.5 5.9 SVERY_STEEP 4.4
2024-06-23 03:40 pm 1.4 0.2 8.3 SE 1.4 5.3 SSWVERY_STEEP 4.3
2024-06-23 03:10 pm 1.4 0.3 10.8NNW 1.4 5.0 SSWVERY_STEEP 4.3
2024-06-23 02:40 pm 1.5 0.2 10.8 SW 1.4 5.3 SSWVERY_STEEP 4.3
2024-06-23 02:10 pm 1.4 0.2 10.8ESE 1.4 5.6 SSWVERY_STEEP 4.2
2024-06-23 01:40 pm 1.4 0.3 9.1SSE 1.4 5.6 SSWVERY_STEEP 4.3
2024-06-23 01:10 pm 1.4 0.2 8.3 SW 1.3 5.3 SSWVERY_STEEP 4.3
2024-06-23 12:40 pm 1.4 0.3 7.7 S 1.3 5.3 SSWVERY_STEEP 4.2
2024-06-23 12:10 pm 1.3 0.3 10.8 S 1.3 4.5 SSWVERY_STEEP 4.1
2024-06-23 11:40 am 1.3 0.3 8.3 SE 1.2 4.5 SSWVERY_STEEP 4.1
2024-06-23 11:10 am 1.3 0.3 8.3ENE 1.2 5.6 SSWVERY_STEEP 4.1
2024-06-23 10:40 am 1.2 0.3 7.1SSE 1.2 4.8 SSWVERY_STEEP 4.0
2024-06-23 10:10 am 1.2 0.4 8.3NNW 1.2 5.3 SSWVERY_STEEP 4.0
2024-06-23 09:40 am 1.2 0.3 8.3ESE 1.2 5.6 SSWVERY_STEEP 4.2
2024-06-23 09:10 am 1.2 0.3 7.7SSE 1.1 5.9 S STEEP 4.1

Plot of wave energy versus frequency (and period)